Date String (YYYY-MM-DD hh:mm:ss) UTC,Instrument flags,Ambient pressure (hPa),Sample flow (lpm),Bypass flow (lpm),Sample temperature (°C),Ambient temperature (°C),ASC tube jacket temperature (°C),LED temperature (°C),Box temperature (°C),Sample RH (%),Span deviation,Mass concentration (μg/m³),Mass concentration (μg/m³),Mass concentration (μg/m³)
DateTimeUTC,F1_M11,P_M11,Q1_M11,Q2_M11,T1_M11,T2_M11,T3_M11,T4_M11,T5_M11,U1_M11,ZSPAN_M11,X0_M11,X2_M11,X1_M11
2022-12-10 12:00:00,,0826.4,4.99,0.00,21.8,20.2,00.0,30.7,23.6,10.7,0000.0,0025.74,0005.37,0003.17
2022-12-10 12:01:00,,0826.5,5.00,0.00,21.8,21.2,00.0,30.7,23.7,10.6,0000.0,0021.97,0004.99,0003.15
2022-12-10 12:02:00,,0826.4,5.00,0.00,21.9,21.9,00.0,30.7,23.9,10.6,0000.0,0019.01,0004.72,0003.12
2022-12-10 12:03:00,,0826.5,5.02,0.00,22.0,21.6,00.0,30.7,23.9,10.5,0000.0,0016.52,0004.61,0003.09
2022-12-10 12:04:00,,0826.4,5.01,0.00,22.0,21.3,00.0,30.7,23.9,10.5,0000.0,0016.37,0004.52,0003.06
2022-12-10 12:05:00,,0826.5,4.99,0.00,22.0,21.0,00.0,30.7,23.9,10.5,0000.0,0016.04,0004.43,0003.03
2022-12-10 12:06:00,,0826.5,4.99,0.00,22.0,20.8,00.0,30.7,23.8,10.5,0000.0,0015.15,0004.26,0003.02
2022-12-10 12:07:00,,0826.5,4.99,0.00,21.9,20.6,00.0,30.7,23.8,10.5,0000.0,0013.33,0004.11,0002.99
2022-12-10 12:08:00,,0826.5,5.02,0.00,21.9,20.4,00.0,30.7,23.7,10.5,0000.0,0011.79,0003.97,0002.95
2022-12-10 12:09:00,,0826.4,5.01,0.00,21.9,20.3,00.0,30.7,23.7,10.4,0000.0,0010.97,0003.86,0002.93
2022-12-10 12:10:00,,0826.5,4.98,0.00,21.9,20.2,00.0,30.7,23.7,10.4,0000.0,0010.64,0003.77,0002.91
2022-12-10 12:11:00,,0826.5,5.00,0.00,21.9,20.2,00.0,30.7,23.7,10.4,0000.0,0010.63,0003.74,0002.93
2022-12-10 12:12:00,,0826.5,5.01,0.00,21.9,20.1,00.0,30.7,23.6,10.4,0000.0,0010.76,0003.72,0002.93
2022-12-10 12:13:00,,0826.5,4.98,0.00,21.8,20.1,00.0,30.7,23.6,10.4,0000.0,0010.49,0003.66,0002.91
2022-12-10 12:14:00,,0826.5,4.99,0.00,21.8,20.0,00.0,30.7,23.6,10.4,0000.0,0009.99,0003.62,0002.89
2022-12-10 12:15:00,,0826.5,5.03,0.00,21.8,20.0,00.0,30.7,23.6,10.4,0000.0,0009.64,0003.58,0002.88
2022-12-10 12:16:00,,0826.5,4.98,0.00,21.8,19.9,00.0,30.6,23.5,10.4,0000.0,0009.31,0003.55,0002.89
2022-12-10 12:17:00,,0826.5,4.99,0.00,21.7,19.9,00.0,30.6,23.5,10.4,0000.0,0008.31,0003.54,0002.88
2022-12-10 12:18:00,,0826.5,5.01,0.00,21.7,20.1,00.0,30.6,23.5,10.3,0000.0,0007.66,0003.49,0002.86
2022-12-10 12:19:00,,0826.5,5.01,0.00,21.8,21.1,00.0,30.6,23.7,10.2,0000.0,0007.39,0003.45,0002.84
2022-12-10 12:20:00,,0826.5,5.00,0.00,21.9,21.9,00.0,30.6,23.9,10.1,0000.0,0007.39,0003.44,0002.82
2022-12-10 12:21:00,,0826.5,4.99,0.00,22.0,21.7,00.0,30.7,23.9,10.1,0000.0,0007.63,0003.41,0002.79
2022-12-10 12:22:00,,0826.5,4.99,0.00,22.0,21.4,00.0,30.7,23.9,10.1,0000.0,0008.06,0003.39,0002.76
2022-12-10 12:23:00,,0826.6,4.99,0.00,21.9,21.1,00.0,30.7,23.8,10.1,0000.0,0007.76,0003.34,0002.74
2022-12-10 12:24:00,,0826.7,5.00,0.00,21.9,20.8,00.0,30.7,23.8,10.1,0000.0,0007.66,0003.31,0002.73
2022-12-10 12:25:00,,0826.5,5.01,0.00,21.9,20.7,00.0,30.7,23.8,10.1,0000.0,0007.63,0003.31,0002.74
2022-12-10 12:26:00,,0826.6,5.01,0.00,21.9,20.6,00.0,30.7,23.8,10.1,0000.0,0007.60,0003.30,0002.74
2022-12-10 12:27:00,,0826.5,4.99,0.00,21.9,20.6,00.0,30.7,23.8,10.1,0000.0,0007.54,0003.26,0002.71
2022-12-10 12:28:00,,0826.6,4.98,0.00,21.9,20.5,00.0,30.7,23.7,10.0,0000.0,0007.43,0003.23,0002.71
2022-12-10 12:29:00,,0826.7,5.01,0.00,21.9,20.5,00.0,30.7,23.7,10.0,0000.0,0007.58,0003.22,0002.70
2022-12-10 12:30:00,,0826.7,5.02,0.00,21.9,20.4,00.0,30.7,23.7,10.0,0000.0,0007.67,0003.22,0002.70
2022-12-10 12:31:00,,0826.7,4.99,0.00,21.9,20.4,00.0,30.7,23.7,09.9,0000.0,0007.46,0003.21,0002.69
2022-12-10 12:32:00,,0826.7,4.99,0.00,21.9,20.2,00.0,30.7,23.7,09.9,0000.0,0007.27,0003.24,0002.69
2022-12-10 12:33:00,,0826.6,5.00,0.00,21.8,20.2,00.0,30.7,23.6,09.9,0000.0,0005.94,0003.24,0002.69
2022-12-10 12:34:00,,0826.5,5.03,0.00,21.8,20.1,00.0,30.7,23.6,09.9,0000.0,0006.12,0003.26,0002.69
2022-12-10 12:35:00,,0826.5,4.98,0.00,21.8,20.0,00.0,30.7,23.6,09.9,0000.0,0006.26,0003.29,0002.68
2022-12-10 12:36:00,,0826.7,4.98,0.00,21.8,19.9,00.0,30.7,23.5,09.9,0000.0,0007.28,0003.32,0002.69
2022-12-10 12:37:00,,0826.7,5.02,0.00,21.8,20.4,00.0,30.6,23.6,09.9,0000.0,0007.80,0003.32,0002.71
2022-12-10 12:38:00,,0826.7,5.01,0.00,21.9,21.5,00.0,30.6,23.8,09.9,0000.0,0008.27,0003.33,0002.71
2022-12-10 12:39:00,,0826.6,5.00,0.00,22.0,21.9,00.0,30.7,24.0,09.9,0000.0,0008.70,0003.33,0002.70
2022-12-10 12:40:00,,0826.6,4.99,0.00,22.0,21.6,00.0,30.7,23.9,09.8,0000.0,0008.43,0003.32,0002.71
2022-12-10 12:41:00,,0826.7,4.99,0.00,22.0,21.2,00.0,30.7,23.9,09.8,0000.0,0008.28,0003.32,0002.72
2022-12-10 12:42:00,,0826.7,4.99,0.00,22.0,20.9,00.0,30.7,23.8,09.9,0000.0,0008.44,0003.31,0002.73
2022-12-10 12:43:00,,0826.6,5.01,0.00,22.0,20.7,00.0,30.7,23.8,09.8,0000.0,0008.45,0003.29,0002.75
2022-12-10 12:44:00,,0826.7,5.02,0.00,21.9,20.6,00.0,30.7,23.8,09.9,0000.0,0008.40,0003.30,0002.78
2022-12-10 12:45:00,,0826.7,4.98,0.00,21.9,20.4,00.0,30.7,23.8,09.9,0000.0,0008.35,0003.30,0002.79
2022-12-10 12:46:00,,0826.7,4.99,0.00,21.9,20.3,00.0,30.7,23.7,09.9,0000.0,0008.38,0003.30,0002.82
2022-12-10 12:47:00,,0826.7,5.03,0.00,21.9,20.2,00.0,30.7,23.7,09.9,0000.0,0008.36,0003.28,0002.82
2022-12-10 12:48:00,,0826.7,4.98,0.00,21.9,20.2,00.0,30.7,23.7,09.9,0000.0,0008.15,0003.31,0002.82
2022-12-10 12:49:00,,0826.8,4.98,0.00,21.9,20.1,00.0,30.7,23.7,09.9,0000.0,0007.76,0003.33,0002.85
2022-12-10 12:50:00,,0826.9,5.02,0.00,21.8,20.1,00.0,30.7,23.6,09.9,0000.0,0007.37,0003.35,0002.88
2022-12-10 12:51:00,,0826.8,5.00,0.00,21.8,20.0,00.0,30.7,23.6,09.9,0000.0,0007.52,0003.39,0002.90
2022-12-10 12:52:00,,0827.1,4.98,0.00,21.8,20.0,00.0,30.6,23.6,09.9,0000.0,0007.61,0003.41,0002.92
2022-12-10 12:53:00,,0827.1,5.01,0.00,21.8,20.0,00.0,30.6,23.5,09.8,0000.0,0007.53,0003.47,0002.97
2022-12-10 12:54:00,,0827.2,5.01,0.00,21.8,20.4,00.0,30.6,23.6,09.9,0000.0,0007.77,0003.50,0003.00
2022-12-10 12:55:00,,0826.9,4.99,0.00,21.8,21.4,00.0,30.6,23.7,09.8,0000.0,0008.59,0003.51,0003.01
2022-12-10 12:56:00,,0827.3,4.99,0.00,21.9,22.0,00.0,30.7,23.9,09.8,0000.0,0008.71,0003.53,0003.02
2022-12-10 12:57:00,,0827.0,5.00,0.00,22.0,21.7,00.0,30.7,23.9,09.8,0000.0,0008.71,0003.55,0003.03
2022-12-10 12:58:00,,0827.0,5.01,0.00,22.0,21.3,00.0,30.7,23.9,09.8,0000.0,0008.10,0003.57,0003.04
2022-12-10 12:59:00,,0826.8,5.01,0.00,22.0,21.1,00.0,30.7,23.8,09.8,0000.0,0008.08,0003.57,0003.06
